Back to catalog

STARLINK-30985

AliveCommunicationsVLEO
NORAD 58493·PAYLOAD·🇺🇸 United States

Launched Dec 3, 2023 from Cape Canaveral Space Force Station

Loading…

Next Passes (next 24 hours)

TLE

FreshSource: CelesTrak SupGP

Epoch: Sep 14, 2026, 21:30 UTC

1 58493C 23186W   26257.89631944  .00051561  00000+0  18675-2 0  2578
2 58493  43.0039  74.8824 0001776 271.0332 157.4752 15.27553475    18

Track STARLINK-30985 in real time with AllMySat

Download on the App Store